Find Starlink 33921

NORAD ID: 65934 Int'l Des: 2025-225 Owner: SPXS Country: US Constellation: starlink operational
LEOCIRCULAR

現在のビュー

3D地球を読み込み中...

About Starlink 33921

Starlink 33921 (NORAD 65934) is a starlink constellation satellite (v2 mini) launched Oct 8, 2025 by SPXS of US. It operates in LEO, CIRCULAR orbit with a mass of 575.00 kg.

Starlink 33921について

説明を読み込み中...

次回通過

Passes for default location (London). Set your location on the main map for personalized predictions.

高度履歴

Loading altitude history...

軌道要素

1 65934U 25225AA 26161.13191609 .00015680 00000-0 54037-3 0 9991
2 65934 53.1578 96.1331 0001732 91.1988 268.9211 15.30201944 37671
Epoch: Jun 10, 2026 • Age: 10 hours

現在のステータス

高度 475.5 km
速度 7.63 km/s
衛星直下点 23.93°N, 24.16°E
打ち上げ日 Oct 8, 2025
運用期間 0.6 years
タイプ internet

技術仕様

分類 Payload
質量 575.00 kg
乾燥質量 530.00 kg
総質量 575.00 kg
長さ 0.30 m
直径 4.10 m
スパン 29.00 m
形状 Box + pan
製造者 SPXS
バスタイプ Starlink V2MO
フェーズステータス In Orbit
所有者/国 SPXS/US

Most Searched